DW7110 Weather Reports


Display with metric or nautical units.
time (UTC)temp
F
wind
direction
speed
MPH
gust
MPH
rain 1hr
in
rain 24hr
in
rain mn
in
humidity
%
barometer
mb
20260510134544 57 1 0.0 0.0 0.00 0.00 0.00 89 1019.4
20260510133043 56 1 0.0 0.0 0.00 0.00 0.00 90 1019.3
20260510131543 55 1 0.0 0.0 0.00 0.00 0.00 91 1019.4
20260510130041 54 1 0.0 0.0 0.00 0.00 0.00 92 1019.4
20260510124543 53 1 0.0 0.0 0.00 0.00 0.00 92 1019.2
20260510123039 52 1 0.0 0.0 0.00 0.00 0.00 92 1019.2
20260510121539 52 1 0.0 0.0 0.00 0.00 0.00 92 1019.1
20260510120035 51 1 0.0 0.0 0.00 0.00 0.00 92 1018.8
20260510114534 51 1 0.0 0.0 0.00 0.00 0.00 92 1018.6
20260510113037 51 1 0.0 0.0 0.00 0.00 0.00 92 1018.5
20260510111531 51 1 0.0 0.0 0.00 0.00 0.00 91 1018.4
20260510110037 51 1 0.0 0.0 0.00 0.00 0.00 91 1018.2
20260510104525 51 1 0.0 0.0 0.00 0.00 0.00 91 1017.8
20260510103024 51 1 0.0 0.0 0.00 0.00 0.00 90 1017.5
20260510101521 51 1 0.0 0.0 0.00 0.00 0.00 90 1017.3
20260510100019 52 1 0.0 0.0 0.00 0.00 0.00 90 1017.3
20260510094616 52 1 0.0 0.0 0.00 0.00 0.00 90 1017.1
20260510093015 52 1 0.0 0.0 0.00 0.00 0.00 90 1016.9
20260510091514 52 1 0.0 0.0 0.00 0.00 0.00 90 1016.7
20260510090016 52 1 0.0 0.0 0.00 0.00 0.00 89 1016.5
20260510084512 53 1 0.0 0.0 0.00 0.00 0.00 89 1016.5
20260510083007 53 1 0.0 0.0 0.00 0.00 0.00 89 1016.3
20260510081504 53 1 0.0 0.0 0.00 0.00 0.00 89 1016.1
20260510080003 53 1 0.0 0.0 0.00 0.00 0.00 89 1016.0
20260510074605 54 1 0.0 0.0 0.00 0.00 0.00 89 1015.8
20260510073059 54 1 0.0 0.0 0.00 0.00 0.00 88 1015.6
20260510071556 55 1 0.0 3.0 0.00 0.00 0.00 88 1015.5
20260510070055 55 1 0.0 0.0 0.00 0.00 0.00 87 1015.4
20260510064603 55 1 0.0 2.0 0.00 0.00 0.00 88 1015.3
20260510063051 56 1 0.0 3.0 0.00 0.00 0.00 87 1015.4
20260510061550 56 1 0.0 0.0 0.00 0.00 0.00 86 1015.4
20260510060046 57 1 0.0 3.0 0.00 0.00 0.00 85 1015.4
20260510054545 57 1 0.0 2.0 0.00 0.00 0.00 85 1015.7
20260510053043 57 1 0.0 3.0 0.00 0.00 0.00 84 1015.8
20260510051543 57 1 0.0 3.0 0.00 0.00 0.00 84 1016.0
20260510050042 57 1 0.0 3.0 0.00 0.00 0.00 84 1016.0
20260510044554 57 1 0.0 0.0 0.00 0.00 0.00 82 1015.8
20260510043038 58 1 0.0 0.0 0.00 0.00 0.00 82 1015.8
20260510041535 58 1 0.0 0.0 0.00 0.00 0.00 81 1015.7
20260510040033 58 1 0.0 0.0 0.00 0.00 0.00 80 1015.6
20260510034532 58 1 0.0 0.0 0.00 0.00 0.00 80 1015.6
20260510033032 59 1 0.0 0.0 0.00 0.00 0.00 78 1015.7
20260510031536 59 1 0.0 0.0 0.00 0.00 0.00 78 1015.7
20260510030037 59 1 0.0 1.0 0.00 0.00 0.00 77 1015.7
20260510024536 59 1 0.0 3.0 0.00 0.00 0.00 77 1015.6
20260510023030 60 1 1.0 3.0 0.00 0.00 0.00 77 1015.5
20260510021533 60 1 0.0 1.0 0.00 0.00 0.00 75 1015.4
20260510020030 60 1 2.0 4.0 0.00 0.00 0.00 74 1015.4
20260510014528 60 1 2.0 5.0 0.00 0.00 0.00 73 1015.2
20260510013027 61 1 2.0 4.0 0.00 0.00 0.00 73 1015.0
20260510011528 61 1 4.0 6.0 0.00 0.00 0.00 74 1014.8
20260510010027 61 1 3.0 8.0 0.00 0.00 0.00 73 1014.5
20260510004527 61 1 4.0 6.0 0.00 0.00 0.00 74 1014.3
20260510003027 62 1 5.0 8.0 0.00 0.00 0.00 72 1014.1
20260510001525 62 1 4.0 8.0 0.00 0.00 0.00 70 1013.9
20260510000024 63 1 2.0 6.0 0.00 0.00 0.00 70 1013.7
20260509234521 64 1 4.0 8.0 0.00 0.00 0.00 65 1013.5
20260509233025 65 1 3.0 5.0 0.00 0.00 0.00 65 1013.3
20260509231520 66 1 2.0 7.0 0.00 0.00 0.00 60 1013.1
20260509230020 67 1 2.0 8.0 0.00 0.00 0.00 53 1013.0
20260509224519 67 1 0.0 7.0 0.00 0.00 0.00 51 1012.8
20260509223017 68 1 2.0 8.0 0.00 0.00 0.00 53 1012.9
20260509221517 68 1 1.0 10.0 0.00 0.00 0.00 60 1012.9
20260509220017 68 1 0.0 10.0 0.00 0.00 0.00 55 1012.9
20260509214514 69 1 5.0 9.0 0.00 0.00 0.00 56 1012.7
20260509213014 69 1 0.0 3.0 0.00 0.00 0.00 58 1012.4
20260509211512 69 1 3.0 9.0 0.00 0.00 0.00 59 1012.0
20260509210012 70 1 2.0 5.0 0.00 0.00 0.00 56 1011.9
20260509204510 70 1 5.0 10.0 0.00 0.00 0.00 57 1012.1
20260509203014 70 1 1.0 9.0 0.00 0.00 0.00 57 1012.1
20260509201509 70 1 4.0 8.0 0.00 0.00 0.00 57 1012.1
20260509200007 70 1 0.0 8.0 0.00 0.00 0.00 61 1012.0
20260509194505 71 1 2.0 10.0 0.00 0.00 0.00 57 1012.1
20260509193004 71 1 1.0 9.0 0.00 0.00 0.00 57 1012.0
20260509191503 73 1 2.0 5.0 0.00 0.00 0.00 60 1012.2
20260509190106 72 1 0.0 3.0 0.00 0.00 0.00 64 1012.3
20260509184600 72 1 0.0 6.0 0.00 0.00 0.00 62 1012.0
20260509183057 71 1 1.0 7.0 0.00 0.00 0.00 55 1012.1
20260509181559 72 1 2.0 5.0 0.00 0.00 0.00 58 1012.3
20260509180054 71 1 4.0 9.0 0.00 0.00 0.00 59 1012.7
20260509174547 69 1 2.0 8.0 0.00 0.00 0.00 63 1012.7
20260509173044 69 1 3.0 6.0 0.00 0.00 0.00 62 1012.8
20260509171540 68 1 3.0 9.0 0.00 0.00 0.00 65 1013.0
20260509170038 67 1 4.0 8.0 0.00 0.00 0.00 64 1013.0
20260509164535 66 1 4.0 9.0 0.00 0.00 0.00 67 1013.5
20260509163031 65 1 3.0 8.0 0.00 0.00 0.00 71 1013.4
20260509161527 64 1 2.0 7.0 0.00 0.00 0.00 73 1013.7
20260509160025 63 1 1.0 7.0 0.00 0.00 0.00 75 1013.8
20260509154523 62 1 0.0 7.0 0.00 0.00 0.00 79 1014.0